Tracking 25709 objects as of 23-May-2022
HD Live streaming from Space Station
objects crossing your sky now

COSMOS 2251 DEB

Track COSMOS 2251 DEB now!
10-day predictions


NORAD ID: 34912
Int'l Code: 1993-036ADH
Perigee: 609.6 km
Apogee: 691.6 km
Inclination: 74.2 °
Period: 97.6 minutes
Semi major axis: 7021 km
RCS: 0.0029 m2 (small)
Launch date: June 16, 1993
Source: Commonwealth of Independent States (former USSR) (CIS)
Launch site: PLESETSK MISSILE AND SPACE COMPLEX (PKMTR)

Note: This is SATELLITE DEBRIS
aabbcc
Your satellite tracking list
Your tracking list is empty




NASA's NSSDC Master Catalog

Two Line Element Set (TLE):
1 34912U 93036ADH 22142.31853381  .00012844  00000-0  18357-2 0  9998
2 34912  74.1636 125.7872 0058365  24.3119 336.0788 14.75524147703428
Source of the keplerian elements: AFSPC